Flag for U.S.A. Weather past 2 weeks in Atlantic City, New Jersey, U.S.A.

Now
53 °F

Sunny.


Feels Like: 51 °F
Forecast: 44 / 54 °F
Wind: 6 mph from South

Location: Atlantic City International Airport

Current Time: Apr 26, 2015 at 7:26:51 PM

Latest Report: Apr 26, 2015 at 6:54 PM


Visibility: 10 mi

Pressure: 29.69 "Hg

Humidity: 37%

Dew point: 27 °F

Location of Atlantic CityLocation

Historic Weather in Atlantic City — Graph

°F

Atlantic City temperature yesterday

Maximum temperature yesterday: 56 °F (at 4:54 PM)
Minimum temperature yesterday: 31 °F (at 3:54 AM)
Average temperature yesterday: 45 °F

Past Weeks' High & Low Weather Summary

 TemperatureHumidityPressure
High73 °F (Apr 17, 3:54 PM)97% (Apr 21, 5:54 AM)30.46 "Hg (Apr 21, 5:54 AM)
Low30 °F (Apr 12, 5:54 AM)18% (Apr 15, 2:54 PM)29.54 "Hg (Apr 21, 2:54 AM)
Average54 °F60%30.00 "Hg
* Reported Apr 11 5:54 PM — Apr 26 5:54 PM, Atlantic City, Weather by CustomWeather, © 2015

Note: Actual official high and low records may vary slightly from our data, if they occured in-between our weather recording intervals... More about our weather records

Advertising

Atlantic City weather history for previous 24 hours

 ConditionsComfort  
Time TempWeatherWind HumidityBarometerVisibility
5:54 PM
Sun, Apr 26
55 °FSunny.9 mph39%29.69 "Hg10 mi
4:54 PM56 °FScattered clouds.10 mph39%29.69 "Hg10 mi
3:54 PM57 °FSunny.13 mph36%29.68 "Hg10 mi
2:54 PM56 °FSunny.13 mph39%29.68 "Hg10 mi
1:54 PM57 °FSunny.14 mph39%29.69 "Hg10 mi
12:54 PM57 °FSunny.14 mph37%29.70 "Hg10 mi
11:54 AM56 °FSunny.14 mph44%29.70 "Hg10 mi
10:54 AM54 °FSunny.18 mph47%29.70 "Hg10 mi
9:54 AM54 °FSunny.13 mph49%29.68 "Hg10 mi
8:54 AM49 °FSunny.9 mph66%29.67 "Hg10 mi
7:54 AM46 °FSunny.7 mph68%29.67 "Hg10 mi
6:54 AM43 °FClear.5 mph74%29.66 "Hg10 mi
5:54 AM43 °FClear.3 mph79%29.65 "Hg10 mi
4:54 AM44 °FClear.6 mph76%29.63 "Hg10 mi
3:54 AM45 °FPassing clouds.7 mph71%29.65 "Hg10 mi
2:54 AM46 °FOvercast.3 mph66%29.66 "Hg10 mi
1:54 AM45 °FPassing clouds.5 mph65%29.67 "Hg10 mi
12:54 AM46 °FClear.3 mph63%29.67 "Hg10 mi
11:54 PM
Sat, Apr 25
47 °FClear.N/A59%29.71 "Hg10 mi
10:54 PM47 °FPassing clouds.3 mph59%29.71 "Hg10 mi
9:54 PM48 °FClear.5 mph54%29.72 "Hg10 mi
8:54 PM49 °FPassing clouds.8 mph50%29.74 "Hg10 mi
7:54 PM51 °FPartly sunny.10 mph41%29.74 "Hg10 mi
Weather by CustomWeather, © 2015

See weather overviewHow to use our weather pages